Hourly Data Report for October 04, 2017

All times are specified in Local Standard Time (LST). Add 1 hour to adjust for Daylight Saving Time where and when it is observed.

EAR FALLS (AUT)
ONTARIO

50°37'50.000" N
93°13'17.000" W
362.60 m
6012199
71295
XEA

Download Data

Hourly Data (October 2017)
Hourly Data Report for October 4, 2017
Temp Definition
°C
Dew Point Temp Definition
°C
Rel Hum Definition
%
Wind Dir Definition
10's deg

Wind Spd Definition
km/h
Visibility Definition
km
Stn Press Definition
kPa
Hmdx Definition


Wind Chill Definition


Weather Definition


TIME
00:00 6.3 5.8 97 15 3   97.62     LegendNANA
01:00 5.9 5.5 97 10 2   97.57     LegendNANA
02:00 5.8 5.5 98 0 1   97.57     LegendNANA
03:00 5.6 5.2 98 18 1   97.52     LegendNANA
04:00 5.1 4.8 98 0 1   97.49     LegendNANA
05:00 5.5 5.3 99 28 4   97.49     LegendNANA
06:00 6.1 5.8 98 22 3   97.50     LegendNANA
07:00 6.5 6.3 98 27 9   97.52     LegendNANA
08:00 6.8 6.3 96 27 12   97.52     LegendNANA
09:00 8.3 6.7 90 25 10   97.46     LegendNANA
10:00 8.5 6.6 88 25 10   97.46     LegendNANA
11:00 9.4 7.0 85 26 13   97.44     LegendNANA
12:00 9.0 6.7 86 24 13   97.40     LegendNANA
13:00 8.8 6.4 85 25 13   97.34     LegendNANA
14:00 8.8 6.3 84 25 14   97.31     LegendNANA
15:00 9.2 6.3 82 25 13   97.33     LegendNANA
16:00 9.3 5.5 77 25 14   97.30     LegendNANA
17:00 9.3 5.6 78 25 9   97.30     LegendNANA
18:00 8.1 5.6 84 29 2   97.30     LegendNANA
19:00 6.6 5.1 90 25 3   97.33     LegendNANA
20:00 5.9 4.8 93 23 2   97.34     LegendNANA
21:00 5.4 4.5 94 22 2   97.31     LegendNANA
22:00 6.5 4.6 88 26 6   97.32     LegendNANA
23:00 6.8 3.9 82 27 7   97.31     LegendNANA

Notes on Data Quality.

Legend

  • E = Estimated
  • M = Missing
  • NA = Not Available
  • ‡ = Partner data that is not subject to review by the National Climate Archives
Date modified: